Year,Month,Day,Hour,Minute,Value (Times are PST for windgust in km/hr)
2012,01,23,00,00,12.90
2012,01,23,00,01,12.90
2012,01,23,00,02,16.10
2012,01,23,00,03,16.10
2012,01,23,00,04,20.90
2012,01,23,00,05,19.30
2012,01,23,00,06,14.50
2012,01,23,00,07,12.90
2012,01,23,00,08,9.60
2012,01,23,00,09,9.60
2012,01,23,00,10,9.60
2012,01,23,00,11,16.10
2012,01,23,00,12,14.50
2012,01,23,00,13,14.50
2012,01,23,00,14,14.50
2012,01,23,00,15,16.10
2012,01,23,00,16,19.30
2012,01,23,00,17,14.50
2012,01,23,00,18,16.10
2012,01,23,00,19,16.10
2012,01,23,00,20,17.70
2012,01,23,00,21,14.50
2012,01,23,00,22,14.50
2012,01,23,00,23,14.50
2012,01,23,00,24,30.60
2012,01,23,00,25,22.50
2012,01,23,00,26,22.50
2012,01,23,00,27,29.00
2012,01,23,00,28,27.40
2012,01,23,00,29,14.50
2012,01,23,00,30,22.50
2012,01,23,00,31,25.70
2012,01,23,00,32,20.90
2012,01,23,00,33,16.10
2012,01,23,00,34,35.40
2012,01,23,00,35,33.80
2012,01,23,00,36,20.90
2012,01,23,00,37,24.20
2012,01,23,00,38,19.30
2012,01,23,00,39,22.50
2012,01,23,00,40,16.10
2012,01,23,00,41,12.90
2012,01,23,00,42,17.70
2012,01,23,00,43,17.70
2012,01,23,00,44,20.90
2012,01,23,00,45,20.90
2012,01,23,00,46,20.90
2012,01,23,00,47,20.90
2012,01,23,00,48,27.40
2012,01,23,00,49,33.80
2012,01,23,00,50,16.10
2012,01,23,00,51,17.70
2012,01,23,00,52,20.90
2012,01,23,00,53,17.70
2012,01,23,00,54,14.50
2012,01,23,00,55,14.50
2012,01,23,00,56,12.90
2012,01,23,00,57,17.70
2012,01,23,00,58,29.00
2012,01,23,00,59,14.50
2012,01,23,01,00,20.90
2012,01,23,01,01,22.50
2012,01,23,01,02,29.00
2012,01,23,01,03,17.70
2012,01,23,01,04,14.50
2012,01,23,01,05,14.50
2012,01,23,01,06,14.50
2012,01,23,01,07,19.30
2012,01,23,01,08,24.20
2012,01,23,01,09,16.10
2012,01,23,01,10,16.10
2012,01,23,01,11,9.60
2012,01,23,01,12,11.30
2012,01,23,01,13,12.90
2012,01,23,01,14,12.90
2012,01,23,01,15,9.60
2012,01,23,01,16,14.50
2012,01,23,01,17,14.50
2012,01,23,01,18,9.60
2012,01,23,01,19,11.30
2012,01,23,01,20,14.50
2012,01,23,01,21,9.60
2012,01,23,01,22,11.30
2012,01,23,01,23,12.90
2012,01,23,01,24,9.60
2012,01,23,01,25,12.90
2012,01,23,01,26,9.60
2012,01,23,01,27,9.60
2012,01,23,01,28,9.60
2012,01,23,01,29,6.40
2012,01,23,01,30,9.60
2012,01,23,01,31,11.30
2012,01,23,01,32,14.50
2012,01,23,01,33,12.90
2012,01,23,01,34,8.10
2012,01,23,01,35,11.30
2012,01,23,01,36,8.10
2012,01,23,01,37,8.10
2012,01,23,01,38,8.10
2012,01,23,01,39,8.10
2012,01,23,01,40,3.20
2012,01,23,01,41,11.30
2012,01,23,01,42,9.60
2012,01,23,01,43,9.60
2012,01,23,01,44,4.80
2012,01,23,01,45,4.80
2012,01,23,01,46,8.10
2012,01,23,01,47,8.10
2012,01,23,01,48,4.80
2012,01,23,01,49,4.80
2012,01,23,01,50,8.10
2012,01,23,01,51,6.40
2012,01,23,01,52,9.60
2012,01,23,01,53,14.50
2012,01,23,01,54,14.50
2012,01,23,01,55,12.90
2012,01,23,01,56,8.10
2012,01,23,01,57,6.40
2012,01,23,01,58,3.20
2012,01,23,01,59,11.30
2012,01,23,02,00,12.90
2012,01,23,02,01,12.90
2012,01,23,02,02,9.60
2012,01,23,02,03,8.10
2012,01,23,02,04,11.30
2012,01,23,02,05,19.30
2012,01,23,02,06,12.90
2012,01,23,02,07,11.30
2012,01,23,02,08,19.30
2012,01,23,02,09,22.50
2012,01,23,02,10,20.90
2012,01,23,02,11,19.30
2012,01,23,02,12,14.50
2012,01,23,02,13,16.10
2012,01,23,02,14,14.50
2012,01,23,02,15,14.50
2012,01,23,02,16,22.50
2012,01,23,02,17,19.30
2012,01,23,02,18,17.70
2012,01,23,02,19,20.90
2012,01,23,02,20,20.90
2012,01,23,02,21,17.70
2012,01,23,02,22,22.50
2012,01,23,02,23,20.90
2012,01,23,02,24,19.30
2012,01,23,02,25,16.10
2012,01,23,02,26,24.20
2012,01,23,02,27,19.30
2012,01,23,02,28,17.70
2012,01,23,02,29,16.10
2012,01,23,02,30,16.10
2012,01,23,02,31,12.90
2012,01,23,02,32,17.70
2012,01,23,02,33,19.30
2012,01,23,02,34,19.30
2012,01,23,02,35,16.10
2012,01,23,02,36,11.30
2012,01,23,02,37,17.70
2012,01,23,02,38,9.60
2012,01,23,02,39,14.50
2012,01,23,02,40,19.30
2012,01,23,02,41,14.50
2012,01,23,02,42,17.70
2012,01,23,02,43,19.30
2012,01,23,02,44,14.50
2012,01,23,02,45,12.90
2012,01,23,02,46,9.60
2012,01,23,02,47,9.60
2012,01,23,02,48,11.30
2012,01,23,02,49,6.40
2012,01,23,02,50,11.30
2012,01,23,02,51,9.60
2012,01,23,02,52,11.30
2012,01,23,02,53,11.30
2012,01,23,02,54,8.10
2012,01,23,02,55,6.40
2012,01,23,02,56,6.40
2012,01,23,02,57,6.40
2012,01,23,02,58,6.40
2012,01,23,02,59,8.10
2012,01,23,03,00,6.40
2012,01,23,03,01,8.10
2012,01,23,03,02,9.60
2012,01,23,03,03,11.30
2012,01,23,03,04,6.40
2012,01,23,03,05,4.80
2012,01,23,03,06,6.40
2012,01,23,03,07,6.40
2012,01,23,03,08,8.10
2012,01,23,03,09,8.10
2012,01,23,03,10,6.40
2012,01,23,03,11,8.10
2012,01,23,03,12,8.10
2012,01,23,03,13,6.40
2012,01,23,03,14,3.20
2012,01,23,03,15,4.80
2012,01,23,03,16,4.80
2012,01,23,03,17,4.80
2012,01,23,03,18,6.40
2012,01,23,03,19,4.80
2012,01,23,03,20,4.80
2012,01,23,03,21,4.80
2012,01,23,03,22,6.40
2012,01,23,03,23,6.40
2012,01,23,03,24,4.80
2012,01,23,03,25,4.80
2012,01,23,03,26,6.40
2012,01,23,03,27,8.10
2012,01,23,03,28,6.40
2012,01,23,03,29,8.10
2012,01,23,03,30,9.60
2012,01,23,03,31,9.60
2012,01,23,03,32,9.60
2012,01,23,03,33,8.10
2012,01,23,03,34,9.60
2012,01,23,03,35,9.60
2012,01,23,03,36,8.10
2012,01,23,03,37,14.50
2012,01,23,03,38,11.30
2012,01,23,03,39,9.60
2012,01,23,03,40,11.30
2012,01,23,03,41,11.30
2012,01,23,03,42,8.10
2012,01,23,03,43,12.90
2012,01,23,03,44,9.60
2012,01,23,03,45,12.90
2012,01,23,03,46,11.30
2012,01,23,03,47,9.60
2012,01,23,03,48,11.30
2012,01,23,03,49,11.30
2012,01,23,03,50,9.60
2012,01,23,03,51,11.30
2012,01,23,03,52,11.30
2012,01,23,03,53,9.60
2012,01,23,03,54,8.10
2012,01,23,03,55,11.30
2012,01,23,03,56,9.60
2012,01,23,03,57,11.30
2012,01,23,03,58,14.50
2012,01,23,03,59,12.90
2012,01,23,04,00,11.30
2012,01,23,04,01,9.60
2012,01,23,04,02,11.30
2012,01,23,04,03,9.60
2012,01,23,04,04,9.60
2012,01,23,04,05,11.30
2012,01,23,04,06,12.90
2012,01,23,04,07,9.60
2012,01,23,04,08,11.30
2012,01,23,04,09,11.30
2012,01,23,04,10,12.90
2012,01,23,04,11,12.90
2012,01,23,04,12,12.90
2012,01,23,04,13,9.60
2012,01,23,04,14,11.30
2012,01,23,04,15,14.50
2012,01,23,04,16,9.60
2012,01,23,04,17,12.90
2012,01,23,04,18,9.60
2012,01,23,04,19,8.10
2012,01,23,04,20,9.60
2012,01,23,04,21,12.90
2012,01,23,04,22,14.50
2012,01,23,04,23,14.50
2012,01,23,04,24,17.70
2012,01,23,04,25,12.90
2012,01,23,04,26,14.50
2012,01,23,04,27,11.30
2012,01,23,04,28,14.50
2012,01,23,04,29,14.50
2012,01,23,04,30,12.90
2012,01,23,04,31,14.50
2012,01,23,04,32,11.30
2012,01,23,04,33,11.30
2012,01,23,04,34,14.50
2012,01,23,04,35,16.10
2012,01,23,04,36,16.10
2012,01,23,04,37,17.70
2012,01,23,04,38,14.50
2012,01,23,04,39,14.50
2012,01,23,04,40,16.10
2012,01,23,04,41,12.90
2012,01,23,04,42,16.10
2012,01,23,04,43,12.90
2012,01,23,04,44,9.60
2012,01,23,04,45,11.30
2012,01,23,04,46,9.60
2012,01,23,04,47,12.90
2012,01,23,04,48,9.60
2012,01,23,04,49,9.60
2012,01,23,04,50,11.30
2012,01,23,04,51,11.30
2012,01,23,04,52,19.30
2012,01,23,04,53,19.30
2012,01,23,04,54,16.10
2012,01,23,04,55,16.10
2012,01,23,04,56,17.70
2012,01,23,04,57,16.10
2012,01,23,04,58,17.70
2012,01,23,04,59,20.90
2012,01,23,05,00,19.30
2012,01,23,05,01,20.90
2012,01,23,05,02,16.10
2012,01,23,05,03,22.50
2012,01,23,05,04,16.10
2012,01,23,05,05,19.30
2012,01,23,05,06,17.70
2012,01,23,05,07,17.70
2012,01,23,05,08,16.10
2012,01,23,05,09,12.90
2012,01,23,05,10,16.10
2012,01,23,05,11,12.90
2012,01,23,05,12,14.50
2012,01,23,05,13,19.30
2012,01,23,05,14,14.50
2012,01,23,05,15,14.50
2012,01,23,05,16,20.90
2012,01,23,05,17,12.90
2012,01,23,05,18,24.20
2012,01,23,05,19,19.30
2012,01,23,05,20,17.70
2012,01,23,05,21,19.30
2012,01,23,05,22,14.50
2012,01,23,05,23,16.10
2012,01,23,05,24,17.70
2012,01,23,05,25,17.70
2012,01,23,05,26,16.10
2012,01,23,05,27,14.50
2012,01,23,05,28,19.30
2012,01,23,05,29,12.90
2012,01,23,05,30,11.30
2012,01,23,05,31,12.90
2012,01,23,05,32,12.90
2012,01,23,05,33,12.90
2012,01,23,05,34,16.10
2012,01,23,05,35,14.50
2012,01,23,05,36,12.90
2012,01,23,05,37,12.90
2012,01,23,05,38,11.30
2012,01,23,05,39,9.60
2012,01,23,05,40,12.90
2012,01,23,05,41,12.90
2012,01,23,05,42,8.10
2012,01,23,05,43,8.10
2012,01,23,05,44,6.40
2012,01,23,05,45,8.10
2012,01,23,05,46,9.60
2012,01,23,05,47,9.60
2012,01,23,05,48,8.10
2012,01,23,05,49,8.10
2012,01,23,05,50,12.90
2012,01,23,05,51,20.90
2012,01,23,05,52,20.90
2012,01,23,05,53,19.30
2012,01,23,05,54,20.90
2012,01,23,05,55,20.90
2012,01,23,05,56,17.70
2012,01,23,05,57,16.10
2012,01,23,05,58,20.90
2012,01,23,05,59,20.90
2012,01,23,06,00,16.10
2012,01,23,06,01,19.30
2012,01,23,06,02,20.90
2012,01,23,06,03,19.30
2012,01,23,06,04,17.70
2012,01,23,06,05,20.90
2012,01,23,06,06,20.90
2012,01,23,06,07,19.30
2012,01,23,06,08,20.90
2012,01,23,06,09,14.50
2012,01,23,06,10,22.50
2012,01,23,06,11,17.70
2012,01,23,06,12,14.50
2012,01,23,06,13,14.50
2012,01,23,06,14,11.30
2012,01,23,06,15,14.50
2012,01,23,06,16,19.30
2012,01,23,06,17,12.90
2012,01,23,06,18,11.30
2012,01,23,06,19,12.90
2012,01,23,06,20,14.50
2012,01,23,06,21,12.90
2012,01,23,06,22,9.60
2012,01,23,06,23,11.30
2012,01,23,06,24,9.60
2012,01,23,06,25,9.60
2012,01,23,06,26,9.60
2012,01,23,06,27,19.30
2012,01,23,06,28,27.40
2012,01,23,06,29,20.90
2012,01,23,06,30,29.00
2012,01,23,06,31,22.50
2012,01,23,06,32,25.70
2012,01,23,06,33,22.50
2012,01,23,06,34,20.90
2012,01,23,06,35,16.10
2012,01,23,06,36,19.30
2012,01,23,06,37,19.30
2012,01,23,06,38,19.30
2012,01,23,06,39,17.70
2012,01,23,06,40,16.10
2012,01,23,06,41,22.50
2012,01,23,06,42,22.50
2012,01,23,06,43,17.70
2012,01,23,06,44,16.10
2012,01,23,06,45,16.10
2012,01,23,06,46,25.70
2012,01,23,06,47,16.10
2012,01,23,06,48,20.90
2012,01,23,06,49,22.50
2012,01,23,06,50,19.30
2012,01,23,06,51,17.70
2012,01,23,06,52,17.70
2012,01,23,06,53,16.10
2012,01,23,06,54,12.90
2012,01,23,06,55,12.90
2012,01,23,06,56,11.30
2012,01,23,06,57,8.10
2012,01,23,06,58,6.40
2012,01,23,06,59,9.60
2012,01,23,07,00,8.10
2012,01,23,07,01,8.10
2012,01,23,07,02,6.40
2012,01,23,07,03,9.60
2012,01,23,07,04,11.30
2012,01,23,07,05,16.10
2012,01,23,07,06,9.60
2012,01,23,07,07,12.90
2012,01,23,07,08,14.50
2012,01,23,07,09,12.90
2012,01,23,07,10,11.30
2012,01,23,07,11,14.50
2012,01,23,07,12,11.30
2012,01,23,07,13,8.10
2012,01,23,07,14,6.40
2012,01,23,07,15,9.60
2012,01,23,07,16,11.30
2012,01,23,07,17,11.30
2012,01,23,07,18,12.90
2012,01,23,07,19,9.60
2012,01,23,07,20,11.30
2012,01,23,07,21,14.50
2012,01,23,07,22,16.10
2012,01,23,07,23,11.30
2012,01,23,07,24,12.90
2012,01,23,07,25,12.90
2012,01,23,07,26,12.90
2012,01,23,07,27,14.50
2012,01,23,07,28,12.90
2012,01,23,07,29,9.60
2012,01,23,07,30,11.30
2012,01,23,07,31,9.60
2012,01,23,07,32,16.10
2012,01,23,07,33,14.50
2012,01,23,07,34,14.50
2012,01,23,07,35,11.30
2012,01,23,07,36,8.10
2012,01,23,07,37,11.30
2012,01,23,07,38,11.30
2012,01,23,07,39,8.10
2012,01,23,07,40,14.50
2012,01,23,07,41,16.10
2012,01,23,07,42,12.90
2012,01,23,07,43,11.30
2012,01,23,07,44,12.90
2012,01,23,07,45,14.50
2012,01,23,07,46,16.10
2012,01,23,07,47,14.50
2012,01,23,07,48,12.90
2012,01,23,07,49,12.90
2012,01,23,07,50,9.60
2012,01,23,07,51,9.60
2012,01,23,07,52,8.10
2012,01,23,07,53,9.60
2012,01,23,07,54,9.60
2012,01,23,07,55,12.90
2012,01,23,07,56,11.30
2012,01,23,07,57,16.10
2012,01,23,07,58,14.50
2012,01,23,07,59,14.50
2012,01,23,08,00,9.60
2012,01,23,08,01,6.40
2012,01,23,08,02,8.10
2012,01,23,08,03,8.10
2012,01,23,08,04,9.60
2012,01,23,08,05,11.30
2012,01,23,08,06,9.60
2012,01,23,08,07,12.90
2012,01,23,08,08,11.30
2012,01,23,08,09,14.50
2012,01,23,08,10,12.90
2012,01,23,08,11,14.50
2012,01,23,08,12,16.10
2012,01,23,08,13,19.30
2012,01,23,08,14,19.30
2012,01,23,08,15,16.10
2012,01,23,08,16,16.10
2012,01,23,08,17,16.10
2012,01,23,08,18,11.30
2012,01,23,08,19,14.50
2012,01,23,08,20,19.30
2012,01,23,08,21,19.30
2012,01,23,08,22,17.70
2012,01,23,08,23,11.30
2012,01,23,08,24,12.90
2012,01,23,08,25,11.30
2012,01,23,08,26,8.10
2012,01,23,08,27,9.60
2012,01,23,08,28,14.50
2012,01,23,08,29,11.30
2012,01,23,08,30,20.90
2012,01,23,08,31,20.90
2012,01,23,08,32,16.10
2012,01,23,08,33,17.70
2012,01,23,08,34,16.10
2012,01,23,08,35,12.90
2012,01,23,08,36,12.90
2012,01,23,08,37,12.90
2012,01,23,08,38,12.90
2012,01,23,08,39,17.70
2012,01,23,08,40,17.70
2012,01,23,08,41,14.50
2012,01,23,08,42,17.70
2012,01,23,08,43,19.30
2012,01,23,08,44,17.70
2012,01,23,08,45,14.50
2012,01,23,08,46,14.50
2012,01,23,08,47,17.70
2012,01,23,08,48,17.70
2012,01,23,08,49,19.30
2012,01,23,08,50,20.90
2012,01,23,08,51,19.30
2012,01,23,08,52,19.30
2012,01,23,08,53,17.70
2012,01,23,08,54,14.50
2012,01,23,08,55,16.10
2012,01,23,08,56,22.50
2012,01,23,08,57,22.50
2012,01,23,08,58,20.90
2012,01,23,08,59,19.30
2012,01,23,09,00,12.90
2012,01,23,09,01,19.30
2012,01,23,09,02,17.70
2012,01,23,09,03,17.70
2012,01,23,09,04,9.60
2012,01,23,09,05,17.70
2012,01,23,09,06,19.30
2012,01,23,09,07,22.50
2012,01,23,09,08,20.90
2012,01,23,09,09,12.90
2012,01,23,09,10,14.50
2012,01,23,09,11,17.70
2012,01,23,09,12,19.30
2012,01,23,09,13,20.90
2012,01,23,09,14,22.50
2012,01,23,09,15,20.90
2012,01,23,09,16,19.30
2012,01,23,09,17,20.90
2012,01,23,09,18,17.70
2012,01,23,09,19,20.90
2012,01,23,09,20,17.70
2012,01,23,09,21,19.30
2012,01,23,09,22,19.30
2012,01,23,09,23,17.70
2012,01,23,09,24,17.70
2012,01,23,09,25,20.90
2012,01,23,09,26,17.70
2012,01,23,09,27,22.50
2012,01,23,09,28,19.30
2012,01,23,09,29,20.90
2012,01,23,09,30,19.30
2012,01,23,09,31,20.90
2012,01,23,09,32,19.30
2012,01,23,09,33,14.50
2012,01,23,09,34,20.90
2012,01,23,09,35,20.90
2012,01,23,09,36,19.30
2012,01,23,09,37,19.30
2012,01,23,09,38,14.50
2012,01,23,09,39,14.50
2012,01,23,09,40,22.50
2012,01,23,09,41,20.90
2012,01,23,09,42,24.20
2012,01,23,09,43,22.50
2012,01,23,09,44,24.20
2012,01,23,09,45,22.50
2012,01,23,09,46,17.70
2012,01,23,09,47,22.50
2012,01,23,09,48,24.20
2012,01,23,09,49,17.70
2012,01,23,09,50,19.30
2012,01,23,09,51,22.50
2012,01,23,09,52,22.50
2012,01,23,09,53,22.50
2012,01,23,09,54,24.20
2012,01,23,09,55,22.50
2012,01,23,09,56,22.50
2012,01,23,09,57,24.20
2012,01,23,09,58,22.50
2012,01,23,09,59,22.50
2012,01,23,10,00,17.70
2012,01,23,10,01,17.70
2012,01,23,10,02,17.70
2012,01,23,10,03,17.70
2012,01,23,10,04,19.30
2012,01,23,10,05,22.50
2012,01,23,10,06,27.40
2012,01,23,10,07,20.90
2012,01,23,10,08,20.90
2012,01,23,10,09,17.70
2012,01,23,10,10,17.70
2012,01,23,10,11,11.30
2012,01,23,10,12,20.90
2012,01,23,10,13,20.90
2012,01,23,10,14,19.30
2012,01,23,10,15,19.30
2012,01,23,10,16,20.90
2012,01,23,10,17,17.70
2012,01,23,10,18,24.20
2012,01,23,10,19,22.50
2012,01,23,10,20,19.30
2012,01,23,10,21,16.10
2012,01,23,10,22,22.50
2012,01,23,10,23,12.90
2012,01,23,10,24,22.50
2012,01,23,10,25,17.70
2012,01,23,10,26,22.50
2012,01,23,10,27,16.10
2012,01,23,10,28,22.50
2012,01,23,10,29,14.50
2012,01,23,10,30,24.20
2012,01,23,10,31,19.30
2012,01,23,10,32,24.20
2012,01,23,10,33,22.50
2012,01,23,10,34,19.30
2012,01,23,10,35,16.10
2012,01,23,10,36,17.70
2012,01,23,10,37,25.70
2012,01,23,10,38,22.50
2012,01,23,10,39,22.50
2012,01,23,10,40,17.70
2012,01,23,10,41,17.70
2012,01,23,10,42,14.50
2012,01,23,10,43,22.50
2012,01,23,10,44,17.70
2012,01,23,10,45,20.90
2012,01,23,10,46,19.30
2012,01,23,10,47,16.10
2012,01,23,10,48,12.90
2012,01,23,10,49,22.50
2012,01,23,10,50,20.90
2012,01,23,10,51,20.90
2012,01,23,10,52,17.70
2012,01,23,10,53,20.90
2012,01,23,10,54,17.70
2012,01,23,10,55,19.30
2012,01,23,10,56,20.90
2012,01,23,10,57,17.70
2012,01,23,10,58,22.50
2012,01,23,10,59,12.90
2012,01,23,11,00,20.90
2012,01,23,11,01,24.20
2012,01,23,11,02,14.50
2012,01,23,11,03,12.90
2012,01,23,11,04,9.60
2012,01,23,11,05,12.90
2012,01,23,11,06,19.30
2012,01,23,11,07,12.90
2012,01,23,11,08,17.70
2012,01,23,11,09,17.70
2012,01,23,11,10,16.10
2012,01,23,11,11,16.10
2012,01,23,11,12,12.90
2012,01,23,11,13,14.50
2012,01,23,11,14,19.30
2012,01,23,11,15,19.30
2012,01,23,11,16,19.30
2012,01,23,11,17,20.90
2012,01,23,11,18,17.70
2012,01,23,11,19,14.50
2012,01,23,11,20,11.30
2012,01,23,11,21,11.30
2012,01,23,11,22,11.30
2012,01,23,11,23,12.90
2012,01,23,11,24,17.70
2012,01,23,11,25,11.30
2012,01,23,11,26,12.90
2012,01,23,11,27,14.50
2012,01,23,11,28,24.20
2012,01,23,11,29,19.30
2012,01,23,11,30,19.30
2012,01,23,11,31,19.30
2012,01,23,11,32,17.70
2012,01,23,11,33,17.70
2012,01,23,11,34,19.30
2012,01,23,11,35,12.90
2012,01,23,11,36,12.90
2012,01,23,11,37,11.30
2012,01,23,11,38,12.90
2012,01,23,11,39,19.30
2012,01,23,11,40,17.70
2012,01,23,11,41,14.50
2012,01,23,11,42,12.90
2012,01,23,11,43,22.50
2012,01,23,11,44,19.30
2012,01,23,11,45,14.50
2012,01,23,11,46,20.90
2012,01,23,11,47,19.30
2012,01,23,11,48,22.50
2012,01,23,11,49,19.30
2012,01,23,11,50,22.50
2012,01,23,11,51,19.30
2012,01,23,11,52,14.50
2012,01,23,11,53,20.90
2012,01,23,11,54,16.10
2012,01,23,11,55,12.90
2012,01,23,11,56,14.50
2012,01,23,11,57,16.10
2012,01,23,11,58,11.30
2012,01,23,11,59,16.10
2012,01,23,12,00,14.50
2012,01,23,12,01,12.90
2012,01,23,12,02,17.70
2012,01,23,12,03,14.50
2012,01,23,12,04,19.30
2012,01,23,12,05,14.50
2012,01,23,12,06,22.50
2012,01,23,12,07,22.50
2012,01,23,12,08,22.50
2012,01,23,12,09,17.70
2012,01,23,12,10,24.20
2012,01,23,12,11,17.70
2012,01,23,12,12,20.90
2012,01,23,12,13,19.30
2012,01,23,12,14,16.10
2012,01,23,12,15,19.30
2012,01,23,12,16,19.30
2012,01,23,12,17,14.50
2012,01,23,12,18,14.50
2012,01,23,12,19,12.90
2012,01,23,12,20,12.90
2012,01,23,12,21,17.70
2012,01,23,12,22,14.50
2012,01,23,12,23,14.50
2012,01,23,12,24,12.90
2012,01,23,12,25,14.50
2012,01,23,12,26,19.30
2012,01,23,12,27,17.70
2012,01,23,12,28,22.50
2012,01,23,12,29,17.70
2012,01,23,12,30,17.70
2012,01,23,12,31,14.50
2012,01,23,12,32,22.50
2012,01,23,12,33,12.90
2012,01,23,12,34,12.90
2012,01,23,12,35,22.50
2012,01,23,12,36,20.90
2012,01,23,12,37,24.20
2012,01,23,12,38,20.90
2012,01,23,12,39,24.20
2012,01,23,12,40,20.90
2012,01,23,12,41,20.90
2012,01,23,12,42,17.70
2012,01,23,12,43,22.50
2012,01,23,12,44,20.90
2012,01,23,12,45,19.30
2012,01,23,12,46,12.90
2012,01,23,12,47,14.50
2012,01,23,12,48,14.50
2012,01,23,12,49,17.70
2012,01,23,12,50,20.90
2012,01,23,12,51,17.70
2012,01,23,12,52,12.90
2012,01,23,12,53,17.70
2012,01,23,12,54,17.70
2012,01,23,12,55,20.90
2012,01,23,12,56,19.30
2012,01,23,12,57,11.30
2012,01,23,12,58,12.90
2012,01,23,12,59,9.60
2012,01,23,13,00,17.70
2012,01,23,13,01,17.70
2012,01,23,13,02,16.10
2012,01,23,13,03,14.50
2012,01,23,13,04,14.50
2012,01,23,13,05,14.50
2012,01,23,13,06,17.70
2012,01,23,13,07,16.10
2012,01,23,13,08,17.70
2012,01,23,13,09,17.70
2012,01,23,13,10,14.50
2012,01,23,13,11,17.70
2012,01,23,13,12,14.50
2012,01,23,13,13,14.50
2012,01,23,13,14,14.50
2012,01,23,13,15,14.50
2012,01,23,13,16,17.70
2012,01,23,13,17,12.90
2012,01,23,13,18,12.90
2012,01,23,13,19,12.90
2012,01,23,13,20,9.60
2012,01,23,13,21,11.30
2012,01,23,13,22,11.30
2012,01,23,13,23,11.30
2012,01,23,13,24,16.10
2012,01,23,13,25,20.90
2012,01,23,13,26,19.30
2012,01,23,13,27,14.50
2012,01,23,13,28,12.90
2012,01,23,13,29,12.90
2012,01,23,13,30,12.90
2012,01,23,13,31,14.50
2012,01,23,13,32,17.70
2012,01,23,13,33,12.90
2012,01,23,13,34,14.50
2012,01,23,13,35,17.70
2012,01,23,13,36,17.70
2012,01,23,13,37,17.70
2012,01,23,13,38,19.30
2012,01,23,13,39,20.90
2012,01,23,13,40,14.50
2012,01,23,13,41,8.10
2012,01,23,13,42,9.60
2012,01,23,13,43,11.30
2012,01,23,13,44,17.70
2012,01,23,13,45,17.70
2012,01,23,13,46,14.50
2012,01,23,13,47,12.90
2012,01,23,13,48,12.90
2012,01,23,13,49,12.90
2012,01,23,13,50,12.90
2012,01,23,13,51,11.30
2012,01,23,13,52,9.60
2012,01,23,13,53,17.70
2012,01,23,13,54,20.90
2012,01,23,13,55,19.30
2012,01,23,13,56,19.30
2012,01,23,13,57,16.10
2012,01,23,13,58,20.90
2012,01,23,13,59,19.30
2012,01,23,14,00,19.30
2012,01,23,14,01,19.30
2012,01,23,14,02,22.50
2012,01,23,14,03,16.10
2012,01,23,14,04,16.10
2012,01,23,14,05,19.30
2012,01,23,14,06,14.50
2012,01,23,14,07,19.30
2012,01,23,14,08,19.30
2012,01,23,14,09,17.70
2012,01,23,14,10,19.30
2012,01,23,14,11,19.30
2012,01,23,14,12,19.30
2012,01,23,14,13,22.50
2012,01,23,14,14,19.30
2012,01,23,14,15,19.30
2012,01,23,14,16,14.50
2012,01,23,14,17,17.70
2012,01,23,14,18,20.90
2012,01,23,14,19,16.10
2012,01,23,14,20,11.30
2012,01,23,14,21,16.10
2012,01,23,14,22,14.50
2012,01,23,14,23,20.90
2012,01,23,14,24,20.90
2012,01,23,14,25,20.90
2012,01,23,14,26,22.50
2012,01,23,14,27,24.20
2012,01,23,14,28,19.30
2012,01,23,14,29,17.70
2012,01,23,14,30,19.30
2012,01,23,14,31,16.10
2012,01,23,14,32,17.70
2012,01,23,14,33,24.20
2012,01,23,14,34,22.50
2012,01,23,14,35,20.90
2012,01,23,14,36,14.50
2012,01,23,14,37,17.70
2012,01,23,14,38,22.50
2012,01,23,14,39,24.20
2012,01,23,14,40,29.00
2012,01,23,14,41,25.70
2012,01,23,14,42,25.70
2012,01,23,14,43,24.20
2012,01,23,14,44,27.40
2012,01,23,14,45,22.50
2012,01,23,14,46,24.20
2012,01,23,14,47,17.70
2012,01,23,14,48,19.30
2012,01,23,14,49,20.90
2012,01,23,14,50,22.50
2012,01,23,14,51,22.50
2012,01,23,14,52,14.50
2012,01,23,14,53,22.50
2012,01,23,14,54,22.50
2012,01,23,14,55,19.30
2012,01,23,14,56,14.50
2012,01,23,14,57,20.90
2012,01,23,14,58,20.90
2012,01,23,14,59,20.90
2012,01,23,15,00,20.90
2012,01,23,15,01,22.50
2012,01,23,15,02,17.70
2012,01,23,15,03,22.50
2012,01,23,15,04,17.70
2012,01,23,15,05,17.70
2012,01,23,15,06,12.90
2012,01,23,15,07,19.30
2012,01,23,15,08,19.30
2012,01,23,15,09,20.90
2012,01,23,15,10,20.90
2012,01,23,15,11,20.90
2012,01,23,15,12,22.50
2012,01,23,15,13,20.90
2012,01,23,15,14,19.30
2012,01,23,15,15,20.90
2012,01,23,15,16,19.30
2012,01,23,15,17,20.90
2012,01,23,15,18,19.30
2012,01,23,15,19,20.90
2012,01,23,15,20,19.30
2012,01,23,15,21,19.30
2012,01,23,15,22,17.70
2012,01,23,15,23,20.90
2012,01,23,15,24,20.90
2012,01,23,15,25,14.50
2012,01,23,15,26,14.50
2012,01,23,15,27,17.70
2012,01,23,15,28,20.90
2012,01,23,15,29,12.90
2012,01,23,15,30,14.50
2012,01,23,15,31,20.90
2012,01,23,15,32,14.50
2012,01,23,15,33,14.50
2012,01,23,15,34,12.90
2012,01,23,15,35,12.90
2012,01,23,15,36,12.90
2012,01,23,15,37,9.60
2012,01,23,15,38,14.50
2012,01,23,15,39,20.90
2012,01,23,15,40,20.90
2012,01,23,15,41,14.50
2012,01,23,15,42,11.30
2012,01,23,15,43,9.60
2012,01,23,15,44,8.10
2012,01,23,15,45,11.30
2012,01,23,15,46,12.90
2012,01,23,15,47,16.10
2012,01,23,15,48,17.70
2012,01,23,15,49,14.50
2012,01,23,15,50,19.30
2012,01,23,15,51,14.50
2012,01,23,15,52,14.50
2012,01,23,15,53,12.90
2012,01,23,15,54,12.90
2012,01,23,15,55,16.10
2012,01,23,15,56,11.30
2012,01,23,15,57,14.50
2012,01,23,15,58,12.90
2012,01,23,15,59,9.60
2012,01,23,16,00,9.60
2012,01,23,16,01,12.90
2012,01,23,16,02,14.50
2012,01,23,16,03,14.50
2012,01,23,16,04,12.90
2012,01,23,16,05,11.30
2012,01,23,16,06,14.50
2012,01,23,16,07,19.30
2012,01,23,16,08,19.30
2012,01,23,16,09,14.50
2012,01,23,16,10,8.10
2012,01,23,16,11,11.30
2012,01,23,16,12,11.30
2012,01,23,16,13,14.50
2012,01,23,16,14,17.70
2012,01,23,16,15,12.90
2012,01,23,16,16,11.30
2012,01,23,16,17,17.70
2012,01,23,16,18,14.50
2012,01,23,16,19,12.90
2012,01,23,16,20,16.10
2012,01,23,16,21,14.50
2012,01,23,16,22,14.50
2012,01,23,16,23,9.60
2012,01,23,16,24,11.30
2012,01,23,16,25,9.60
2012,01,23,16,26,14.50
2012,01,23,16,27,11.30
2012,01,23,16,28,12.90
2012,01,23,16,29,12.90
2012,01,23,16,30,11.30
2012,01,23,16,31,12.90
2012,01,23,16,32,11.30
2012,01,23,16,33,11.30
2012,01,23,16,34,11.30
2012,01,23,16,35,14.50
2012,01,23,16,36,14.50
2012,01,23,16,37,14.50
2012,01,23,16,38,11.30
2012,01,23,16,39,12.90
2012,01,23,16,40,11.30
2012,01,23,16,41,12.90
2012,01,23,16,42,11.30
2012,01,23,16,43,14.50
2012,01,23,16,44,14.50
2012,01,23,16,45,14.50
2012,01,23,16,46,12.90
2012,01,23,16,47,11.30
2012,01,23,16,48,11.30
2012,01,23,16,49,11.30
2012,01,23,16,50,11.30
2012,01,23,16,51,11.30
2012,01,23,16,52,11.30
2012,01,23,16,53,11.30
2012,01,23,16,54,9.60
2012,01,23,16,55,12.90
2012,01,23,16,56,12.90
2012,01,23,16,57,9.60
2012,01,23,16,58,12.90
2012,01,23,16,59,11.30
2012,01,23,17,00,12.90
2012,01,23,17,01,12.90
2012,01,23,17,02,11.30
2012,01,23,17,03,11.30
2012,01,23,17,04,12.90
2012,01,23,17,05,12.90
2012,01,23,17,06,16.10
2012,01,23,17,07,11.30
2012,01,23,17,08,12.90
2012,01,23,17,09,11.30
2012,01,23,17,10,11.30
2012,01,23,17,11,11.30
2012,01,23,17,12,9.60
2012,01,23,17,13,8.10
2012,01,23,17,14,11.30
2012,01,23,17,15,9.60
2012,01,23,17,16,8.10
2012,01,23,17,17,11.30
2012,01,23,17,18,12.90
2012,01,23,17,19,11.30
2012,01,23,17,20,8.10
2012,01,23,17,21,9.60
2012,01,23,17,22,8.10
2012,01,23,17,23,12.90
2012,01,23,17,24,8.10
2012,01,23,17,25,8.10
2012,01,23,17,26,8.10